Location: Kalberh�ni
(46.4610°N, 7.2453°E)
Time: 21:05:18
(UTC+00:00)

USA 229 - Pass Details

Date: 25 October 2021
Orbit: 946 x 1266 km, 63.4° (Epoch: 25 November)

Event Time Altitude Azimuth Distance (km) Brightness Sun altitude
Rises 20:22:36 0° 268° (W) 3,703 7.2 -40.3°
Reaches altitude 10° 20:25:36 10° 282° (WNW) 2,797 6.5 -40.7°
Maximum altitude 20:31:02 26° 337° (NNW) 1,949 5.3 -41.6°
Enters shadow 20:31:25 26° 342° (NNW) 1,960 5.3 -41.6°
